Meteo Giornale » Osservazioni meteo Italia » Verona-Villafranca

ore: 20:50 - Osservazioni Meteo Verona-Villafranca
Lat. 45° 23' N Lon. 10° 52' E Alt. 67 metri s.l.m.

nuvoloso Europe/Rome

21 °C

Nuvoloso

Temp. 24 Ore

20 °C

24 °C

Est/Nord-Est

11.1 Km/h

Dew point 19 °C

Umidità 88 %

Visibilità  10 Km

Il sole sorge alle ore 06:55

Il sole tramonta alle ore 19:27

Data e Ora Cielo e Fenomeni T °C DP °C Um. % Pres. hPa Vis. km Vento km/h
Oggi h: 20:50 nuvoloso Nuvoloso 21 19 88 1013 10 E/NE 11.1
Oggi h: 20:20 nuvoloso Nuvoloso 21 18 82 1013 10 E 7.4
Oggi h: 19:50 nuvoloso Nuvoloso 22 18 78 1013 10 E 7.4
Oggi h: 19:20 nuvoloso Nuvoloso 22 18 78 1013 10 E 7.4
Oggi h: 18:50 molto_nuvoloso Molto Nuvoloso 23 18 73 1013 10 E 9.3
Oggi h: 18:20 molto_nuvoloso Molto Nuvoloso 23 18 73 1014 10 E/SE 7.4
Oggi h: 17:20 molto_nuvoloso Molto Nuvoloso 24 18 69 1013 10 E 9.3
Oggi h: 16:50 molto_nuvoloso Molto Nuvoloso 24 18 69 1014 10 E/SE 9.3
Oggi h: 16:20 molto_nuvoloso Molto Nuvoloso 23 18 73 1014 10 E/SE 11.1
Oggi h: 15:50 molto_nuvoloso Molto Nuvoloso 24 18 69 1014 10 SE 9.3
Oggi h: 15:20 molto_nuvoloso Molto Nuvoloso 24 17 64 1014 10 E/SE 7.4
Oggi h: 14:50 molto_nuvoloso Molto Nuvoloso 24 17 64 1015 10 N 5.5
Oggi h: 14:20 molto_nuvoloso Molto Nuvoloso 23 18 73 1015 10 E 7.4
Oggi h: 13:50 nuvoloso Nuvoloso 23 18 73 1015 10 E 7.4
Oggi h: 13:20 nuvoloso Nuvoloso 23 18 73 1016 8 E 7.4
Oggi h: 12:50 nuvoloso Nuvoloso 23 18 73 1016 7 SE 9.3
Oggi h: 12:20 nuvoloso Nuvoloso 23 19 78 1016 7 E/SE 11.1
Oggi h: 11:50 coperto_pioggia Pioviggine Leggera Foschia 22 20 88 1016 3 E 9.3
Oggi h: 11:20 coperto_pioggia Pioggia Debole Foschia 21 20 94 1016 3 E/SE 9.3
Oggi h: 10:50 coperto_pioggia Pioggia Debole Foschia 21 19 88 1016 3 E 7.4
Oggi h: 10:20 coperto_pioggia Pioggia Debole Foschia 20 19 93 1015 3 E/SE 9.3
Oggi h: 09:50 coperto_pioggia Pioggia Debole Foschia 21 19 88 1015 4 SE 11.1
Oggi h: 09:20 molto_nuvoloso Molto Nuvoloso 21 17 77 1015 10 N 5.5
Oggi h: 08:50 nuvoloso Nuvoloso 20 17 82 1015 10 N 5.5
Oggi h: 08:20 poco_nuvoloso Poco Nuvoloso 20 17 82 1015 10 N 5.5
Oggi h: 07:50 molto_nuvoloso Molto Nuvoloso 20 16 77 1014 10 N 5.5
Oggi h: 07:20 molto_nuvoloso Molto Nuvoloso 20 16 77 1014 10 N/NE 7.4
Oggi h: 06:50 molto_nuvoloso Molto Nuvoloso 20 16 77 1014 10 N 5.5
Oggi h: 05:50 sereno Sereno 20 16 77 1015 10 N 1.8
Oggi h: 05:20 sereno Sereno 20 16 77 1014 10 N 1.8
Oggi h: 04:50 sereno Sereno 20 16 77 1014 10 N 5.5
Oggi h: 04:20 sereno Sereno 21 16 73 1015 10 O 7.4
Oggi h: 03:50 sereno Sereno 22 16 68 1015 10 N 5.5
Oggi h: 03:20 sereno Sereno 22 16 68 1015 10 N 5.5
Oggi h: 02:50 sereno Sereno 22 16 68 1015 10 O/NO 7.4
Oggi h: 02:20 sereno Sereno 23 16 64 1015 10 N 5.5
Oggi h: 01:50 sereno Sereno 22 16 68 1016 10 N 5.5
Oggi h: 01:20 sereno Sereno 23 17 68 1015 10 N 3.7
Oggi h: 00:50 sereno Sereno 22 16 68 1015 10 N 5.5
Oggi h: 00:20 sereno Sereno 23 16 64 1015 10 N 3.7
Ieri h: 23:50 sereno Sereno 23 16 64 1015 10 N 5.5
Ieri h: 23:20 nuvoloso Nuvoloso 23 16 64 1015 10 N 3.7
Ieri h: 22:50 molto_nuvoloso Molto Nuvoloso 23 16 64 1015 10 N 1.8
Ieri h: 22:20 nuvoloso Nuvoloso 22 16 68 1015 10 N 1.8
Ieri h: 21:50 nuvoloso Nuvoloso 22 16 68 1015 10 N 3.7